Location: Cecciola
(44.3833°N, 10.1833°E)
Time: 21:41:05
(UTC+00:00)

Daily predictions for brighter satellites

Satellite Brightness Start Highest point End
(mag) Time Altitude Azimuth Time Altitude Azimuth Time Altitude Azimuth
Cosmos 1437 Rocket 2.8 17:56:13 10° S 18:00:15 75° E 18:04:19 10° NNE
Cosmos 1703 Rocket 4.2 17:56:38 10° N 18:00:44 35° ENE 18:04:45 10° SE
CZ-4 R/B 1.8 17:57:40 10° SE 18:01:15 39° ENE 18:04:53 10° N
Meteor 1-23 Rocket 4.2 17:56:39 10° N 18:02:12 78° E 18:07:45 10° SSE
Iridium 4 Rocket 4.5 18:01:02 10° NE 18:03:50 17° ENE 18:06:35 10° ESE
USA 306 3.7 18:03:25 10° WNW 18:06:58 42° SW 18:10:31 10° SSE
Cosmos 1624 Rocket 4.0 18:04:00 10° SSW 18:09:15 73° ESE 18:14:35 10° NNE
Cosmos 1470 Rocket 3.6 18:05:51 10° S 18:10:19 84° E 18:14:50 10° N
Cosmos 2016 Rocket 4.5 18:09:12 10° N 18:14:50 37° ENE 18:20:27 10° SE
Cosmos 1420 Rocket 4.0 18:10:24 10° SSW 18:15:37 79° ESE 18:20:51 10° NNE
Cosmos 2123 Rocket 4.4 18:11:09 10° SSE 18:16:54 40° E 18:22:43 10° NNE
Okean-O 3.9 18:15:08 10° ESE 18:18:30 22° ENE 18:21:52 10° NNE
Cosmos 1263 4.4 18:16:18 10° S 18:19:57 90° E 18:23:05 10° N
Cosmos 2173 Rocket 4.1 18:13:47 10° N 18:20:08 65° E 18:26:27 10° SSE
Timation 1 Rocket 4.3 18:15:39 10° SSW 18:21:37 74° ESE 18:27:38 10° NNE
Cosmos 1000 Rocket 4.4 18:16:44 10° S 18:22:48 67° E 18:28:52 10° NNE
Okean O Rocket 1.6 18:22:14 10° SSE 18:26:36 67° ENE 18:30:59 10° N
YAOGAN 1 3.3 18:24:33 10° S 18:28:47 57° W 18:33:03 10° NNW
Cosmos 2242 Rocket 4.1 18:26:08 10° N 18:30:28 41° ENE 18:34:46 10° SSE
Cosmos 2100 Rocket 4.0 18:24:15 10° N 18:30:41 81° E 18:37:00 10° S
GEOS 3 Rocket 3.8 18:25:17 10° NE 18:30:42 81° NW 18:36:05 10° SW
CSL-04 Rocket 4.1 18:25:50 10° SE 18:31:02 43° ENE 18:36:14 10° N
ISS -1.9 18:29:37 10° WNW 18:32:30 25° N 18:35:22 10° NE
USA 215 4.2 18:27:08 10° NE 18:33:17 45° NNW 18:39:24 10° W
Cosmos 1452 Rocket 4.0 18:29:00 10° SSE 18:33:48 38° ESE 18:38:39 10° NE
SL-27 R/B 2.6 18:30:34 10° SSW 18:33:51 68° WNW 18:37:07 10° NNE
In-Cosmos 22 4.3 18:28:23 10° NNW 18:34:03 84° W 18:39:49 10° S
EXPRESS MD2 3.0 18:33:03 10° WNW 18:35:08 37° SSW 18:36:35 17° SSE
USA 305 4.0 18:31:49 10° WNW 18:35:17 34° SW 18:38:44 10° SSE
Cosmos 676 Rocket 4.0 18:30:26 10° NNW 18:35:41 89° ENE 18:40:57 10° SSE
KORONAS-FOTON 3.8 18:32:46 10° N 18:36:36 82° W 18:40:25 10° S
Cosmos 2237 Rocket 3.1 18:35:01 10° N 18:40:02 31° NE 18:43:20 18° ESE
Exosat Rocket 4.0 18:35:03 10° SSW 18:40:08 77° WNW 18:46:35 10° NNE
USA 307 4.3 18:38:12 10° WNW 18:41:33 29° SW 18:44:51 10° SSE
USA 186 1.8 18:40:28 12° SSE 18:43:08 53° ENE 18:46:12 10° N
FALCON 9 R/B 4.4 18:42:33 10° SSW 18:47:11 22° SSE 18:55:49 13° SE
Okean 3 4.1 18:45:34 10° NNW 18:49:42 57° W 18:53:51 10° S
Meteor 1-21 4.3 18:44:10 10° NNW 18:49:48 84° W 18:55:27 10° S
Cosmos 1741 Rocket 4.3 18:46:21 10° N 18:51:24 46° ENE 18:54:39 21° SE
CZ-4B R/B 4.0 18:46:54 10° S 18:52:27 55° W 18:58:00 10° NNW
Cosmos 1707 4.1 18:51:11 10° NNW 18:54:45 40° W 18:58:18 10° SSW
Cosmos 2322 4.1 18:50:32 10° NNW 18:56:09 66° WSW 19:01:44 10° SSE
Okean 1-7 4.0 18:52:02 10° NNW 18:56:17 50° W 19:00:28 10° SSW
Cosmos 1805 3.1 18:53:33 10° S 18:57:17 59° E 19:01:04 10° NNE
Lacrosse 5 rocket 1.9 18:53:42 10° SSW 18:57:41 37° SE 18:59:08 28° E
Cosmos 1674 3.8 18:55:37 10° NNW 18:59:10 44° W 19:02:42 10° SSW
Cosmos 1980 4.1 18:56:03 10° NNW 19:01:32 46° ENE 19:04:24 26° ESE
Cosmos 1975 3.5 18:57:53 10° SSW 19:01:46 57° W 19:05:41 10° N
SJ-6B 3.0 18:58:02 10° S 19:01:58 72° WSW 19:05:50 10° NNW
Cosmos 2219 Rocket 3.3 18:57:18 10° NW 19:02:42 45° WSW 19:08:04 10° S
Cosmos 2333 Rocket 4.1 18:59:36 10° NW 19:04:32 30° WSW 19:09:26 10° SSW
Cosmos 1726 1.8 19:03:17 10° S 19:06:46 76° E 19:10:17 10° NNE
CSL-04 Debris 4.2 19:01:57 10° SSE 19:07:22 87° WSW 19:12:50 10° NNW
USA 267 4.3 19:02:41 10° SSE 19:08:46 40° SW 19:14:54 10° WNW
Cosmos 1864 Rocket 4.5 19:03:06 10° N 19:09:19 86° W 19:15:26 10° S
Cosmos 2233 Rocket 4.0 19:03:16 10° N 19:09:22 61° E 19:14:14 16° SSE
Ariane Rocket 4.3 19:09:42 21° ENE 19:10:05 21° ENE 19:13:49 10° NNE
Cosmos 1869 Rocket 3.7 19:06:58 10° SSW 19:11:16 75° W 19:15:36 10° N
BREEZE-M DEB (TANK) 3.5 19:10:25 10° W 19:13:04 21° SW 19:13:56 17° SSW
Cosmos 2061 Rocket 4.0 19:07:04 10° N 19:13:33 84° E 19:19:58 10° S
COSMOS 2428 3.2 19:10:15 10° NNW 19:15:53 60° WSW 19:21:24 11° S
Landsat 5 3.4 19:12:36 10° NNE 19:16:23 51° E 19:17:14 42° SE
SL-14 R/B 3.0 19:13:59 10° N 19:17:50 85° E 19:19:23 35° SSE
Cosmos 2297 Rocket 2.2 19:14:16 10° S 19:19:45 57° ESE 19:25:18 10° NNE
Cosmos 1867 3.5 19:18:12 10° SSW 19:23:38 87° ESE 19:29:08 10° NE
NOSS 3-2 (A) 4.3 19:16:15 10° NW 19:23:52 75° WSW 19:30:28 19° SSE
Resurs 01 Rocket 1.5 19:25:55 47° SE 19:27:00 65° ENE 19:31:23 10° N
Cosmos 1725 Rocket 4.4 19:24:25 10° NNW 19:30:32 64° W 19:36:37 10° S
CZ-4C R/B 4.1 19:27:52 10° NNW 19:33:42 28° NNE 19:36:50 22° ENE
CENTAUR R/B 3.6 19:26:08 10° NW 19:34:24 64° WSW 19:41:25 18° SSE
NOSS 3-2 (C) 4.0 19:26:53 10° NW 19:34:28 80° NE 19:38:47 33° SE
MOS 1 4.3 19:33:10 40° SE 19:35:07 63° ENE 19:40:46 10° N
IRS-P2 Rocket 4.5 19:33:49 43° SE 19:35:30 71° ENE 19:40:43 10° N
Cosmos 2227 Rocket 2.4 19:30:13 10° S 19:35:35 46° ESE 19:40:59 10° NE
CZ-4 R/B 4.2 19:33:55 10° SW 19:36:18 16° W 19:38:43 10° NW
Terra 3.7 19:42:45 17° NE 19:42:45 17° NE 19:44:36 10° NNE
Geosat 3.9 19:40:51 46° SSE 19:42:23 84° WSW 19:47:27 10° NNW
Iridium 4 Rocket 4.3 19:40:05 10° NNW 19:43:57 38° W 19:47:48 10° SSW
MetOp-A 4.0 19:46:21 58° ESE 19:46:57 63° ENE 19:52:07 10° N
USA 238 DEB 3.9 19:40:41 10° NW 19:48:03 78° NE 19:50:51 44° SE
USA 238 3.9 19:40:47 10° NW 19:48:09 78° NE 19:50:55 44° SE
SL-16 R/B 2.9 19:44:19 10° NNW 19:49:33 36° NE 19:49:38 36° ENE
Cosmos 1733 Rocket 3.0 19:53:01 68° SW 19:53:28 76° W 19:57:47 10° N
Cosmos 1674 Rocket 4.1 19:49:27 10° N 19:52:42 46° NNE 19:52:42 46° NNE
Okean-O 3.8 19:52:20 22° SSW 19:54:41 40° W 19:58:53 10° NNW
CARTOSAT-1 3.7 19:58:45 66° N 19:58:45 66° N 20:02:29 10° NNW
Meteor 2-13 Rocket 4.4 19:53:00 15° S 19:58:14 88° W 20:04:26 10° N
SPOT 1/Viking Rocket 4.0 19:55:57 31° SSW 19:58:19 57° W 20:03:28 10° NNW
SPOT 5 3.9 20:02:23 32° NNE 20:02:23 32° NNE 20:05:27 10° N
Cosmos 1378 Rocket 4.0 20:00:34 10° N 20:04:02 55° N 20:04:02 55° N
Cosmos 2221 Rocket 3.9 20:01:37 10° N 20:05:26 64° NNW 20:05:26 64° NNW
Cosmos 1464 Rocket 4.0 20:02:11 10° N 20:08:27 59° ENE 20:08:27 59° ENE
BREEZE-M DEB (TANK) 4.2 20:05:25 10° WNW 20:08:22 33° NW 20:08:22 33° NW
ISS -1.2 20:07:07 10° NW 20:08:42 20° NNW 20:08:42 20° NNW
ADEOS Rocket 3.6 20:15:26 46° ENE 20:15:26 46° ENE 20:21:43 10° N
Cosmos 1891 Rocket 4.3 20:13:09 10° N 20:19:20 89° E 20:19:48 78° S
Meteor 1-22 Rocket 4.4 20:20:17 68° NE 20:20:17 68° NE 20:25:43 10° NNE
H-2A R/B 3.8 20:23:55 38° NNW 20:23:55 38° NNW 20:26:41 10° NNW
Cosmos 2237 Rocket 3.0 20:18:54 10° NW 20:24:13 44° WSW 20:25:11 40° SW
Meteor 1-15 Rocket 4.2 20:24:42 79° WSW 20:24:55 80° W 20:30:49 10° N
MetOp-B 4.3 20:29:53 67° WNW 20:29:53 67° WNW 20:34:56 10° NNW
Cosmos 2346 Rocket 4.5 20:31:22 71° SW 20:31:53 77° W 20:38:07 10° N
Lacrosse 5 rocket 3.5 20:32:33 10° WSW 20:34:34 24° W 20:34:34 24° W
Cosmos 968 Rocket 4.3 20:33:02 10° NNW 20:37:26 46° W 20:37:26 46° W
SJ 16-02 3.6 20:34:49 10° N 20:36:14 19° N 20:36:14 19° N
ERS-1 Rocket 4.2 20:44:49 37° N 20:44:49 37° N 20:47:49 10° NNW
FALCON 9 R/B 3.8 20:29:59 10° W 20:45:16 42° SSW 20:45:16 42° SSW
Meteor 1-24 Rocket 4.2 20:42:07 10° NNW 20:47:15 64° NW 20:47:15 64° NW
Ariane Rocket 4.0 20:49:52 43° NW 20:49:52 43° NW 20:53:37 10° NNW
BREEZE-M DEB (TANK) 4.0 20:46:49 10° WNW 20:50:43 46° NW 20:50:43 46° NW
Resurs 01 Rocket 4.3 21:03:26 13° W 21:03:54 13° W 21:05:55 10° WNW
Cosmos 2297 Rocket 4.2 20:59:32 10° WSW 21:04:11 26° NW 21:08:51 10° N
ATLAS 3B R/B 4.2 21:10:45 10° NNW 21:17:11 29° NNE 21:17:41 29° NE
Terra 4.1 21:21:29 22° NNW 21:21:29 22° NNW 21:23:13 10° NNW
Cosmos 2227 Rocket 3.9 21:14:53 10° WSW 21:19:49 30° NW 21:24:47 10° N
CZ-4C R/B 3.2 21:15:53 10° NW 21:21:59 67° NNW 21:21:59 67° NNW
SL-16 R/B 3.9 21:28:27 10° NW 21:31:32 28° WNW 21:31:32 28° WNW
USA 215 4.5 21:57:51 35° N 21:57:51 35° N 22:03:05 10° NW
ATLAS 3B R/B 4.3 23:01:18 10° NW 23:04:56 32° NW 23:04:56 32° NW
